Location: Sungai Bunut
(2.6333°N, 113.7333°E)
Time: 16:02:43
(UTC+00:00)

Cosmos 1697 Rocket - Pass Details

Date: 22 May 2022
Orbit: 833 x 843 km, 71.0° (Epoch: 03 July)

Event Time Altitude Azimuth Distance (km) Brightness Sun altitude
Rises 11:19:48 0° 165° (SSE) 3,387 5.5 -12.6°
Enters shadow 11:20:33 - 162° (SSE) 3,145 5.3 -12.8°
Exits shadow 11:29:08 14° 75° (ENE) 2,158 4.4 -14.8°
Drops below altitude 10° 11:30:30 10° 63° (ENE) 2,451 4.7 -15.1°
Sets 11:33:41 0° 45° (NE) 3,385 5.6 -15.8°
